Back to catalog

STARLINK-2428

AliveCommunicationsVLEO
NORAD 48099·PAYLOAD·🇺🇸 United States

Launched Apr 7, 2021 from Cape Canaveral Space Force Station

Loading…

Next Passes (next 24 hours)

TLE

FreshSource: CelesTrak SupGP

Epoch: Sep 14, 2026, 21:13 UTC

1 48099C 21027H   26257.88451389 -.00015147  00000+0 -48714-3 0  2573
2 48099  53.1607   7.3246 0001606  73.6603 223.6458 15.31704766    15

Track STARLINK-2428 in real time with AllMySat

Download on the App Store